User: anonymous   Login
Location: Caltech
(34.1382°N, 118.1253°W)
Time: 18:49:42
(UTC-07:00)
Language:

Cosmos 1484 Rocket - Orbit

View from above orbital plane
View from above orbital plane
View from above satellite
View from above satellite

Ground track
Ground track

The orbit data is extracted from the following two-line orbital elements,

1 14208U 83075B   16207.91478049 +.00000493 +00000-0 +33633-4 0  9994
2 14208 097.3534 225.7469 0039992 174.1337 186.0369 15.10000160797966
Epoch (UTC): 25 July 2016 21:57:17
Eccentricity: 0.0039992
inclination: 97.3534°
perigee height: 508 km
apogee height: 564 km
right ascension of ascending node: 225.7469°
argument of perigee: 174.1337°
revolutions per day: 15.10000160
mean anomaly at epoch: 186.0369°
orbit number at epoch: 79796

The dashed part of the orbit path shows where the satellite is in the earth's shadow,  

DLR